SCP
-0 -0 -0 -0 -0 -0 0 0 0 0 0 0 0 0 0 0 0 0 0 0 0 0 0 0 0 0 0 0 0 0 0 0 0 0 0 0 0 0 0 0 0 0 0 0
-0 -0 -0 -0 -0 0 0 0 0 0 0 0 0 0 0 0 0 0 0 0 0 0 0 0 0 0 0 0 0 0 0 0 0 0 0 0 0 0 0 0 0 0 0 0
-0 -0 -0 -0 -0 0 0 0 0 0 0 0 0 0 0 0 0 0 0 0 0 0 0 0 0 0 0 0 0 0 0 0 0 0 0 0 0 0 0 0 0 0 0 0
-0 -0 -0 -0 -0 0 0 0 0 0 0 0 0 0 0 0 0 0 0 0 0 0 0 0 0 0 0 0 0 0 0 0 0 0 0 0 0 0 0 0 0 0 0 0
-0 -0 -0 -0 -0 0 0 0 0 0 0 0 0 0 0 0 0 0 0 0 0 0 0 0 0 0 0 0 0 0 0 0 0 0 0 0 0 0 0 0 0 0 0 0
-0 -0 -0 -0 -0 0 0 0 0 0 0 0 0 0 0 0 0 0 0 0 0 0 0 0 0 0 0 0 0 0 0 0 0 0 0 0 0 0 0 0 0 0 0 0
-0 -0 -0 -0 -0 0 0 0 0 0 0 0 0 0 0 0 0 0 0 0 0 0 0 0 0 0 0 0 0 0 0 0 0 0 0 0 0 0 0 0 0 0 0 0
0 -0 -0 -0 -0 -0 0 0 0 0 0 0 0 0 0 0 0 0 0 0 0 0 0 0 0 0 0 0 0 0 0 0 0 0 0 0 0 0 0 0 0 0 0 0
0 -0 -0 -0 -0 -0 0 0 0 0 0 0 0 0 0 0 0 0 0 0 0 0 0 0 0 0 0 0 0 0 0 0 0 0 0 0 0 0 0 0 0 0 0 0
0 0 -0 -0 -0 -0 0 0 0 0 0 0 0 0 0 0 0 0 0 0 0 0 0 0 0 0 0 0 0 0 0 0 0 0 0 0 0 0 0 0 0 0 0 0
0 0 0 0 -0 0 0 0 0 0 0 0 0 0 0 0 0 0 0 0 0 0 0 0 0 0 0 0 0 0 0 0 0 0 0 0 0 0 0 0 0 0 0 0
0 0 0 0 0 0 0 0 0 0 0 0 0 0 0 0 0 0 0 0 0 0 0 0 0 0 0 0 0 0 0 0 0 0 0 0 0 0 0 0 0 0 0 0
0 0 0 0 0 0 0 0 0 0 0 0 0 0 0 0 0 0 0 0 0 0 0 0 0 0 0 0 0 0 0 0 0 0 0 0 0 0 0 0 0 0 0 0
0 0 0 0 0 0 0 0 0 0 0 0 0 0 0 0 0 0 0 0 0 0 0 0 0 0 0 0 0 0 0 0 0 0 0 0 0 0 0 0 0 0 0 0
0 0 0 0 0 0 0 0 0 0 0 0 0 0 0 0 0 0 0 0 0 0 0 0 0 0 0 0 0 0 0 0 0 0 0 0 0 0 0 0 0 0 0 0
0 0 0 0 0 0 0 0 0 0 0 0 0 0 0 0 0 0 0 0 0 0 0 0 0 0 0 0 0 0 0 0 0 0 0 0 0 0 0 0 0 0 0 0
0 0 0 0 0 0 0 0 0 0 0 0 0 0 0 0 0 0 0 0 0 0 0 0 0 0 0 0 0 0 0 0 0 0 0 0 0 0 0 0 0 0 0 0
0 0 0 0 0 0 0 0 0 0 0 0 0 0 0 0 0 0 0 0 0 0 0 0 0 0 0 0 0 0 0 0 0 0 0 0 0 0 0 0 0 0 0 0
0 0 0 0 0 0 0 0 0 0 0 0 0 0 0 0 0 0 0 0 0 0 0 0 0 0 0 0 0 0 0 0 0 0 0 0 0 0 0 0 0 0 0 0
0 0 0 0 0 0 0 0 0 0 0 0 0 0 0 0 0 0 0 0 0 0 0 0 0 0 0 0 0 0 0 0 0 0 0 0 0 0 0 0 0 0 0 0
0 0 0 0 0 0 0 0 0 0 0 0 0 0 0 0 0 0 0 0 0 0 0 0 0 0 0 0 0 0 0 0 0 0 0 0 0 0 0 0 0 0 0 0
0 0 0 0 0 0 0 0 0 0 0 0 0 0 0 0 0 0 0 0 0 0 0 0 0 0 0 0 0 0 0 0 0 0 0 0 0 0 0 0 0 0 0 0
0 0 0 0 0 0 0 0 0 0 0 0 0 0 0 0 0 0 0 0 0 0 0 0 0 0 0 0 0 -0 0 0 0 0 0 0 0 0 0 0 0 0 0 0
0 0 0 0 0 0 0 0 0 0 0 0 0 0 0 0 0 0 0 0 0 0 0 0 0 0 0 0 -0 0 0 0 0 0 0 0 0 0 0 0 0 0 0 0
0 0 0 0 0 0 0 0 0 0 0 0 0 0 0 0 0 0 0 0 0 0 0 0 0 0 0 -0 0 0 0 0 0 0 0 0 0 0 0 0 0 0 0 0
0 0 0 0 0 0 0 0 0 0 0 0 0 0 0 0 0 0 0 0 0 0 0 0 0 -0 -0 0 0 0 0 0 0 0 0 -0 -0 0 0 0 0 0 0 0
0 0 0 0 0 0 0 0 0 0 0 0 0 0 0 0 0 0 0 0 0 0 0 0 -0 -0 0 0 0 0 0 0 0 0 0 -0 -0 0 0 0 0 0 0 0
Wind_Speed_500mb
53 45 46 44 33 18 4 7 5 28 22 4 2 5 6 5 9 1 5 1 7 7 6 6 5 8 3 13 11 14 12 5 5 1 7 2 4 3 4 6 4 2 4 8
50 44 45 44 32 18 5 7 10 24 10 6 5 5 6 7 5 6 7 3 6 6 7 7 2 3 4 14 7 13 17 5 8 6 5 5 8 5 4 7 3 10 8 7
48 43 43 42 32 18 5 6 6 5 6 5 4 2 4 5 3 1 3 4 5 6 6 10 7 4 6 9 6 6 4 5 5 12 2 4 8 11 9 9 7 6 16 20
46 42 41 40 35 14 4 4 3 7 8 9 7 2 4 5 2 3 8 6 8 5 6 4 5 1 1 5 9 5 4 3 3 2 2 5 6 12 15 16 12 15 23 13
42 40 40 38 36 12 8 4 4 6 5 4 10 5 6 7 5 6 3 8 6 4 6 1 8 5 1 3 7 5 6 2 1 3 3 8 13 14 16 16 11 17 18 21
38 37 37 39 34 26 11 9 7 5 2 4 7 7 1 1 5 14 12 15 13 18 9 6 10 9 9 8 7 4 3 9 8 14 5 5 16 21 19 8 5 8 13 6
32 33 31 34 33 32 31 19 3 1 4 2 3 2 3 4 2 7 7 9 6 3 3 3 5 10 11 9 14 6 4 6 1 9 4 17 7 9 12 7 3 6 4 4
27 28 26 27 28 23 25 30 6 4 5 1 3 5 5 7 12 10 11 10 7 8 5 3 2 2 2 8 15 4 5 8 5 6 13 9 6 4 1 3 5 4 6 4
22 23 23 22 23 21 15 25 14 5 3 3 2 4 4 4 5 5 5 9 8 6 6 3 5 5 1 5 6 8 10 8 8 6 8 9 6 5 10 6 11 8 3 1
17 19 19 20 19 20 15 15 18 3 3 5 4 3 4 6 5 4 1 4 3 7 4 4 5 5 1 5 5 3 3 4 10 9 9 3 3 7 3 9 6 6 2 10
15 15 16 18 18 18 15 10 16 1 3 5 7 7 5 5 3 3 4 5 2 4 4 4 5 5 4 4 1 1 1 3 4 3 6 10 6 4 5 12 8 8 15 22
13 12 13 13 16 17 12 12 17 7 4 5 10 10 10 11 9 4 3 2 3 4 6 3 5 5 5 2 5 2 5 3 3 7 4 2 2 6 10 11 18 25 26 40
13 12 10 10 13 17 10 14 12 8 6 9 12 11 13 12 8 4 2 4 7 6 7 8 4 3 3 5 3 3 4 3 3 5 3 9 12 12 11 17 25 34 40 48
14 12 9 6 9 12 5 10 22 7 6 4 6 13 11 9 10 7 3 8 14 16 10 7 4 2 3 2 4 3 5 6 1 7 12 16 20 18 17 29 38 44 50 55
16 13 9 6 4 6 3 2 9 15 4 1 8 13 10 10 11 11 16 14 16 9 6 4 4 5 4 4 2 4 6 2 7 10 20 16 27 30 31 43 53 56 58 61
18 15 10 8 4 3 2 1 1 10 9 1 6 8 16 15 12 13 16 17 15 10 6 7 6 5 1 2 2 1 2 4 10 11 20 28 41 51 53 45 55 61 63 63
19 17 11 9 7 5 4 4 2 7 8 1 4 7 10 19 12 9 8 9 10 8 6 5 5 4 2 1 3 3 7 17 18 22 29 34 31 47 58 60 63 60 60 61
19 17 12 9 7 7 6 9 6 6 2 1 3 4 8 14 7 5 5 5 5 7 5 5 4 5 0 5 9 12 14 17 21 24 29 38 50 57 57 56 58 61 64 65
17 14 10 7 8 8 9 10 7 7 5 2 3 8 7 11 6 7 5 5 4 2 3 4 1 3 6 6 9 8 12 17 29 42 46 46 46 55 58 60 61 63 70 70
17 15 9 8 11 13 8 4 3 5 6 7 5 6 6 9 6 5 4 5 3 3 4 1 2 4 11 12 11 17 21 28 37 38 45 52 53 54 56 57 57 60 64 70
18 12 8 12 16 8 5 4 4 4 5 9 6 12 8 6 4 6 4 5 2 5 4 3 3 3 6 1 12 19 25 33 41 39 44 41 44 51 58 63 65 68 69 69
19 11 14 13 7 4 5 4 3 7 5 10 10 10 6 8 7 7 4 4 3 3 4 4 3 4 7 9 21 29 34 40 42 40 43 48 47 45 51 59 66 67 67 66
17 8 8 6 6 4 9 13 6 5 13 15 14 10 8 8 7 10 4 5 3 7 4 3 5 5 6 13 25 33 38 38 38 37 42 41 49 57 59 62 62 62 65 58
7 7 1 7 7 7 8 6 3 3 9 27 24 12 5 6 5 4 5 4 6 5 5 4 1 5 15 24 25 33 37 37 32 38 37 44 52 53 59 62 60 57 55 50
4 5 6 8 6 9 7 8 7 4 17 33 19 13 7 5 6 2 6 7 6 5 4 2 3 11 24 24 28 32 32 28 30 33 37 49 51 55 57 53 52 49 54 52
4 5 4 7 6 4 3 8 12 16 31 27 10 7 5 4 6 7 6 8 6 6 4 4 10 18 19 24 27 28 23 22 25 32 40 45 47 52 51 47 48 50 48 49
5 6 11 11 12 11 6 4 5 27 28 11 7 7 4 9 5 6 5 5 7 8 7 5 13 20 20 22 25 19 18 17 24 30 38 42 46 54 57 58 54 50 47 46
Wind_Direction_500mb
356 356 355 356 357 6 105 145 108 158 154 131 26 200 216 300 282 292 264 228 87 110 114 121 149 176 277 342 174 178 178 177 213 103 16 2 324 104 215 268 238 143 292 262
357 357 357 358 0 8 121 105 94 166 160 178 199 265 268 257 287 353 356 75 31 57 105 114 113 137 60 18 169 173 179 189 148 146 161 220 233 136 113 108 142 203 259 270
358 358 359 359 1 5 132 133 123 151 204 138 146 16 299 285 348 104 39 85 125 119 85 39 128 128 41 28 85 97 139 134 226 269 356 106 180 177 186 242 240 260 250 280
358 359 1 3 2 8 123 109 111 156 176 205 192 196 307 294 210 48 35 96 58 98 115 101 96 85 3 85 16 41 340 163 213 201 184 204 240 212 197 222 259 253 310 258
358 360 2 9 8 10 59 98 133 126 97 127 161 165 210 227 146 337 41 111 92 80 119 53 163 154 61 16 22 50 1 137 181 264 214 241 253 251 242 242 235 253 268 273
358 1 3 9 19 28 52 59 86 117 20 128 174 171 305 210 162 47 68 112 98 89 73 72 58 70 73 60 20 18 327 159 182 252 360 293 261 256 249 234 218 273 254 354
356 2 4 9 15 27 34 26 57 353 111 174 135 163 128 66 6 130 76 78 104 126 95 65 72 58 64 94 35 237 161 124 202 271 200 252 51 351 239 236 151 196 159 122
352 359 3 8 13 16 20 21 40 47 109 107 114 91 95 101 78 76 86 55 86 129 102 87 0 77 117 76 36 62 244 160 165 238 227 331 209 162 171 239 175 175 158 143
345 355 1 3 8 11 12 17 30 57 137 86 170 76 45 116 97 111 87 55 91 119 74 96 207 233 70 172 144 72 92 83 218 161 238 252 77 112 0 157 258 171 207 212
331 349 356 359 1 5 6 12 17 49 91 50 111 100 98 105 100 109 19 357 87 73 113 144 190 184 288 208 186 155 106 72 221 208 248 269 51 352 184 233 30 154 270 309
311 334 350 357 359 0 3 354 4 55 87 99 91 84 103 107 86 170 139 161 111 91 125 187 157 203 120 185 113 233 264 229 185 167 246 255 31 118 305 349 296 259 294 301
287 314 341 352 1 1 6 360 355 168 139 122 115 111 95 83 73 104 129 85 109 141 112 171 142 161 176 178 195 145 219 303 347 246 359 17 334 56 343 309 286 286 283 304
271 291 322 339 355 4 15 19 17 140 120 118 118 113 101 91 73 50 187 178 150 134 129 132 106 150 190 188 190 204 154 157 269 279 142 250 250 261 288 320 295 297 293 294
258 269 295 319 345 6 39 34 33 101 129 137 160 138 114 90 54 34 161 181 141 128 99 83 92 100 214 121 62 283 29 177 221 266 271 293 276 254 286 303 302 297 295 294
258 252 269 283 313 349 9 0 27 41 119 127 143 146 130 108 84 87 100 121 131 112 91 81 87 97 161 89 205 228 188 101 290 302 307 278 279 283 299 301 302 301 298 296
253 238 245 263 246 284 344 341 285 19 30 76 158 155 153 140 119 113 105 105 102 99 93 90 96 104 353 194 238 93 236 316 283 286 306 289 290 299 305 300 302 303 299 293
239 229 229 248 239 222 196 163 171 348 5 54 122 137 156 165 153 139 111 93 86 75 93 77 102 113 42 134 245 201 308 323 325 332 322 308 309 303 307 307 306 306 300 297
229 215 223 229 226 226 202 199 205 310 345 100 148 121 150 165 151 118 135 123 113 55 87 93 91 129 194 227 239 275 308 322 323 322 313 301 310 312 310 310 310 308 306 305
209 197 200 193 178 172 186 191 253 258 204 198 202 173 164 153 109 108 85 108 106 82 108 87 247 147 222 214 239 284 324 319 314 321 321 320 316 314 317 318 316 312 308 309
179 170 162 174 175 163 179 230 200 190 205 211 230 166 141 148 133 97 131 51 78 172 76 105 257 256 262 253 288 308 310 316 325 323 324 322 320 322 319 315 310 312 312 316
160 161 158 157 158 173 183 192 201 185 219 204 199 188 135 141 140 112 47 112 94 193 119 266 193 242 240 140 335 332 330 327 328 324 323 323 319 320 320 326 331 327 324 322
162 146 129 147 170 167 198 195 180 218 219 180 166 163 131 123 109 108 92 109 182 159 143 222 213 255 259 309 332 336 339 335 333 337 335 334 333 331 330 333 333 332 330 328
145 157 154 159 164 150 203 183 192 214 175 167 158 138 130 109 101 85 142 152 138 136 193 224 234 271 332 334 333 335 341 342 345 343 346 350 345 350 349 344 343 341 340 336
152 160 65 206 182 231 201 202 166 154 168 156 148 115 112 106 94 118 141 94 169 172 200 205 199 297 325 332 335 338 342 348 350 352 355 353 352 351 1 359 355 352 354 357
142 162 210 224 256 259 250 242 253 222 166 150 117 88 100 90 114 84 121 163 191 215 177 197 256 317 329 335 337 343 345 352 356 2 356 356 355 360 5 4 6 12 13 10
173 219 259 232 272 257 239 234 237 200 170 158 124 117 126 106 132 163 181 172 190 148 203 222 314 336 337 334 341 346 352 359 6 6 7 9 6 8 7 10 13 15 21 16
213 229 241 259 280 274 292 296 197 170 161 165 141 132 104 124 133 163 196 192 148 178 198 296 340 333 334 342 346 354 5 16 19 19 17 21 18 26 24 32 29 26 26 27
Wind_Speed_850mb
53 45 46 44 33 18 4 7 5 28 22 4 2 5 6 5 9 1 5 1 7 7 6 6 5 8 3 13 11 14 12 5 5 1 7 2 4 3 4 6 4 2 4 8
50 44 45 44 32 18 5 7 10 24 10 6 5 5 6 7 5 6 7 3 6 6 7 7 2 3 4 14 7 13 17 5 8 6 5 5 8 5 4 7 3 10 8 7
48 43 43 42 32 18 5 6 6 5 6 5 4 2 4 5 3 1 3 4 5 6 6 10 7 4 6 9 6 6 4 5 5 12 2 4 8 11 9 9 7 6 16 20
46 42 41 40 35 14 4 4 3 7 8 9 7 2 4 5 2 3 8 6 8 5 6 4 5 1 1 5 9 5 4 3 3 2 2 5 6 12 15 16 12 15 23 13
42 40 40 38 36 12 8 4 4 6 5 4 10 5 6 7 5 6 3 8 6 4 6 1 8 5 1 3 7 5 6 2 1 3 3 8 13 14 16 16 11 17 18 21
38 37 37 39 34 26 11 9 7 5 2 4 7 7 1 1 5 14 12 15 13 18 9 6 10 9 9 8 7 4 3 9 8 14 5 5 16 21 19 8 5 8 13 6
32 33 31 34 33 32 31 19 3 1 4 2 3 2 3 4 2 7 7 9 6 3 3 3 5 10 11 9 14 6 4 6 1 9 4 17 7 9 12 7 3 6 4 4
27 28 26 27 28 23 25 30 6 4 5 1 3 5 5 7 12 10 11 10 7 8 5 3 2 2 2 8 15 4 5 8 5 6 13 9 6 4 1 3 5 4 6 4
22 23 23 22 23 21 15 25 14 5 3 3 2 4 4 4 5 5 5 9 8 6 6 3 5 5 1 5 6 8 10 8 8 6 8 9 6 5 10 6 11 8 3 1
17 19 19 20 19 20 15 15 18 3 3 5 4 3 4 6 5 4 1 4 3 7 4 4 5 5 1 5 5 3 3 4 10 9 9 3 3 7 3 9 6 6 2 10
15 15 16 18 18 18 15 10 16 1 3 5 7 7 5 5 3 3 4 5 2 4 4 4 5 5 4 4 1 1 1 3 4 3 6 10 6 4 5 12 8 8 15 22
13 12 13 13 16 17 12 12 17 7 4 5 10 10 10 11 9 4 3 2 3 4 6 3 5 5 5 2 5 2 5 3 3 7 4 2 2 6 10 11 18 25 26 40
13 12 10 10 13 17 10 14 12 8 6 9 12 11 13 12 8 4 2 4 7 6 7 8 4 3 3 5 3 3 4 3 3 5 3 9 12 12 11 17 25 34 40 48
14 12 9 6 9 12 5 10 22 7 6 4 6 13 11 9 10 7 3 8 14 16 10 7 4 2 3 2 4 3 5 6 1 7 12 16 20 18 17 29 38 44 50 55
16 13 9 6 4 6 3 2 9 15 4 1 8 13 10 10 11 11 16 14 16 9 6 4 4 5 4 4 2 4 6 2 7 10 20 16 27 30 31 43 53 56 58 61
18 15 10 8 4 3 2 1 1 10 9 1 6 8 16 15 12 13 16 17 15 10 6 7 6 5 1 2 2 1 2 4 10 11 20 28 41 51 53 45 55 61 63 63
19 17 11 9 7 5 4 4 2 7 8 1 4 7 10 19 12 9 8 9 10 8 6 5 5 4 2 1 3 3 7 17 18 22 29 34 31 47 58 60 63 60 60 61
19 17 12 9 7 7 6 9 6 6 2 1 3 4 8 14 7 5 5 5 5 7 5 5 4 5 0 5 9 12 14 17 21 24 29 38 50 57 57 56 58 61 64 65
17 14 10 7 8 8 9 10 7 7 5 2 3 8 7 11 6 7 5 5 4 2 3 4 1 3 6 6 9 8 12 17 29 42 46 46 46 55 58 60 61 63 70 70
17 15 9 8 11 13 8 4 3 5 6 7 5 6 6 9 6 5 4 5 3 3 4 1 2 4 11 12 11 17 21 28 37 38 45 52 53 54 56 57 57 60 64 70
18 12 8 12 16 8 5 4 4 4 5 9 6 12 8 6 4 6 4 5 2 5 4 3 3 3 6 1 12 19 25 33 41 39 44 41 44 51 58 63 65 68 69 69
19 11 14 13 7 4 5 4 3 7 5 10 10 10 6 8 7 7 4 4 3 3 4 4 3 4 7 9 21 29 34 40 42 40 43 48 47 45 51 59 66 67 67 66
17 8 8 6 6 4 9 13 6 5 13 15 14 10 8 8 7 10 4 5 3 7 4 3 5 5 6 13 25 33 38 38 38 37 42 41 49 57 59 62 62 62 65 58
7 7 1 7 7 7 8 6 3 3 9 27 24 12 5 6 5 4 5 4 6 5 5 4 1 5 15 24 25 33 37 37 32 38 37 44 52 53 59 62 60 57 55 50
4 5 6 8 6 9 7 8 7 4 17 33 19 13 7 5 6 2 6 7 6 5 4 2 3 11 24 24 28 32 32 28 30 33 37 49 51 55 57 53 52 49 54 52
4 5 4 7 6 4 3 8 12 16 31 27 10 7 5 4 6 7 6 8 6 6 4 4 10 18 19 24 27 28 23 22 25 32 40 45 47 52 51 47 48 50 48 49
5 6 11 11 12 11 6 4 5 27 28 11 7 7 4 9 5 6 5 5 7 8 7 5 13 20 20 22 25 19 18 17 24 30 38 42 46 54 57 58 54 50 47 46
Wind_Direction_850mb
356 356 355 356 357 6 105 145 108 158 154 131 26 200 216 300 282 292 264 228 87 110 114 121 149 176 277 342 174 178 178 177 213 103 16 2 324 104 215 268 238 143 292 262
357 357 357 358 0 8 121 105 94 166 160 178 199 265 268 257 287 353 356 75 31 57 105 114 113 137 60 18 169 173 179 189 148 146 161 220 233 136 113 108 142 203 259 270
358 358 359 359 1 5 132 133 123 151 204 138 146 16 299 285 348 104 39 85 125 119 85 39 128 128 41 28 85 97 139 134 226 269 356 106 180 177 186 242 240 260 250 280
358 359 1 3 2 8 123 109 111 156 176 205 192 196 307 294 210 48 35 96 58 98 115 101 96 85 3 85 16 41 340 163 213 201 184 204 240 212 197 222 259 253 310 258
358 360 2 9 8 10 59 98 133 126 97 127 161 165 210 227 146 337 41 111 92 80 119 53 163 154 61 16 22 50 1 137 181 264 214 241 253 251 242 242 235 253 268 273
358 1 3 9 19 28 52 59 86 117 20 128 174 171 305 210 162 47 68 112 98 89 73 72 58 70 73 60 20 18 327 159 182 252 360 293 261 256 249 234 218 273 254 354
356 2 4 9 15 27 34 26 57 353 111 174 135 163 128 66 6 130 76 78 104 126 95 65 72 58 64 94 35 237 161 124 202 271 200 252 51 351 239 236 151 196 159 122
352 359 3 8 13 16 20 21 40 47 109 107 114 91 95 101 78 76 86 55 86 129 102 87 0 77 117 76 36 62 244 160 165 238 227 331 209 162 171 239 175 175 158 143
345 355 1 3 8 11 12 17 30 57 137 86 170 76 45 116 97 111 87 55 91 119 74 96 207 233 70 172 144 72 92 83 218 161 238 252 77 112 0 157 258 171 207 212
331 349 356 359 1 5 6 12 17 49 91 50 111 100 98 105 100 109 19 357 87 73 113 144 190 184 288 208 186 155 106 72 221 208 248 269 51 352 184 233 30 154 270 309
311 334 350 357 359 0 3 354 4 55 87 99 91 84 103 107 86 170 139 161 111 91 125 187 157 203 120 185 113 233 264 229 185 167 246 255 31 118 305 349 296 259 294 301
287 314 341 352 1 1 6 360 355 168 139 122 115 111 95 83 73 104 129 85 109 141 112 171 142 161 176 178 195 145 219 303 347 246 359 17 334 56 343 309 286 286 283 304
271 291 322 339 355 4 15 19 17 140 120 118 118 113 101 91 73 50 187 178 150 134 129 132 106 150 190 188 190 204 154 157 269 279 142 250 250 261 288 320 295 297 293 294
258 269 295 319 345 6 39 34 33 101 129 137 160 138 114 90 54 34 161 181 141 128 99 83 92 100 214 121 62 283 29 177 221 266 271 293 276 254 286 303 302 297 295 294
258 252 269 283 313 349 9 0 27 41 119 127 143 146 130 108 84 87 100 121 131 112 91 81 87 97 161 89 205 228 188 101 290 302 307 278 279 283 299 301 302 301 298 296
253 238 245 263 246 284 344 341 285 19 30 76 158 155 153 140 119 113 105 105 102 99 93 90 96 104 353 194 238 93 236 316 283 286 306 289 290 299 305 300 302 303 299 293
239 229 229 248 239 222 196 163 171 348 5 54 122 137 156 165 153 139 111 93 86 75 93 77 102 113 42 134 245 201 308 323 325 332 322 308 309 303 307 307 306 306 300 297
229 215 223 229 226 226 202 199 205 310 345 100 148 121 150 165 151 118 135 123 113 55 87 93 91 129 194 227 239 275 308 322 323 322 313 301 310 312 310 310 310 308 306 305
209 197 200 193 178 172 186 191 253 258 204 198 202 173 164 153 109 108 85 108 106 82 108 87 247 147 222 214 239 284 324 319 314 321 321 320 316 314 317 318 316 312 308 309
179 170 162 174 175 163 179 230 200 190 205 211 230 166 141 148 133 97 131 51 78 172 76 105 257 256 262 253 288 308 310 316 325 323 324 322 320 322 319 315 310 312 312 316
160 161 158 157 158 173 183 192 201 185 219 204 199 188 135 141 140 112 47 112 94 193 119 266 193 242 240 140 335 332 330 327 328 324 323 323 319 320 320 326 331 327 324 322
162 146 129 147 170 167 198 195 180 218 219 180 166 163 131 123 109 108 92 109 182 159 143 222 213 255 259 309 332 336 339 335 333 337 335 334 333 331 330 333 333 332 330 328
145 157 154 159 164 150 203 183 192 214 175 167 158 138 130 109 101 85 142 152 138 136 193 224 234 271 332 334 333 335 341 342 345 343 346 350 345 350 349 344 343 341 340 336
152 160 65 206 182 231 201 202 166 154 168 156 148 115 112 106 94 118 141 94 169 172 200 205 199 297 325 332 335 338 342 348 350 352 355 353 352 351 1 359 355 352 354 357
142 162 210 224 256 259 250 242 253 222 166 150 117 88 100 90 114 84 121 163 191 215 177 197 256 317 329 335 337 343 345 352 356 2 356 356 355 360 5 4 6 12 13 10
173 219 259 232 272 257 239 234 237 200 170 158 124 117 126 106 132 163 181 172 190 148 203 222 314 336 337 334 341 346 352 359 6 6 7 9 6 8 7 10 13 15 21 16
213 229 241 259 280 274 292 296 197 170 161 165 141 132 104 124 133 163 196 192 148 178 198 296 340 333 334 342 346 354 5 16 19 19 17 21 18 26 24 32 29 26 26 27